国际通讯卫星 701星 (INTELSAT 701 (IS-701))

导读 | 星芒AI

INTELSAT 701(IS-701)是由劳拉空间系统公司制造的一颗通信卫星,于1995年由美国国家航空航天局(NASA)的航天飞机“哥伦比亚号”发射升空。该卫星由霍尼韦尔公司提供有效载荷,设计寿命为12年,主要服务于Intelsat国际通信联盟,提供跨大西洋的固定业务通信服务。IS-701部署在东经345度轨道位置,搭载C波段和Ku波段转发器,支持电视广播、电话和数据传输等多种应用。

基本信息
目录编号:
22871
目录名称:
INTELSAT 701
国际标识:
1993-066A
轨道中心:
EARTH
卫星名称:
国际通讯卫星 701星
卫星全名:
国际通讯卫星 701星 (INTELSAT 701 (IS-701))
卫星状态:
在轨 (已飞行11695 天)
发射日期:
1993-10-22 UTC
国别 :
(ITSO)
星等 :
--
轨道信息
数据来源 国际轨道数据
星历时间: 2025-10-28T20:36:23+0800
18小时前
查看轨道信息
半长轴: 42433.453km
偏心率: 0.0003509
轨道倾角: 10.342°
近地点辐角 137.776°
升交点赤经 48.286°
平近点角 244.530°
近地点: 36040.428km
远地点: 36070.208km
周期: 1449.847分钟
每日圈数: 0.993208
详细信息
卫星平台:
SSL-1300
平衡模式:
三轴稳定
覆盖范围:
全球
运营商:
国际卫星通信公司
运营商所在国:
美国
制造商(研发单位):
劳拉空间系统公司
制造商所在国:
美国
使用方式:
暂无
卫星简介
从1965年4月至1984年3月,国际通信卫星组织发射了5代、6种不同性能的卫星共计35颗,除6颗卫星因运载火箭和远地点发动机故障而发射失败外,其余29颗卫星均被送到了预定的静止轨道位置。1984年8月前后,国际通信卫星组织利用部署在大西洋、太平洋、印度洋上空的15颗国际通信卫星,为遍布世界各地170多个国家或地区提供电话、电传、电报、电视和数据传输等电信业务;该卫星已退役。
2D轨道图
3D轨道图
轨道高度分析图
轨道倾角分析图
轨道综合分析图
查看轨道综合分析图